sat.trackr.live / text

‹ back to catalog

TIANLIAN 1-04

NORAD 41869 · 2016-072A

PAYLOAD ACTIVE UNKNOWN

§ Identity

Operator
Country
PRC
Launch date
2016-11-22
Launch site
XICLF
Launch vehicle
Mass (kg)
RCS (m²)
21.95

Purposes: comms

External: N2YO · Heavens-Above · Gunter

§ Orbital elements

Epoch: 2026-09-04T03:10:09.192576Z

Period
1,436.14 min
Inclination
1.0654°
Eccentricity
0.0046811
Mean motion
1.00268905 rev/d
Perigee alt
35,590.0 km
Apogee alt
35,984.8 km
Semi-major
42,165.5 km
B*
0.0000e+0
RAAN
82.2271°
Arg perigee
94.7766°
Mean anomaly
30.6708°
Rev number
3,609

§ Raw data

TIANLIAN 1-041 41869U 16072A   26247.13205084  .00000026  00000+0  00000+0 0  99942 41869   1.0654  82.2271 0046811  94.7766  30.6708  1.00268905 36090

JSON: /api/v1/satellites/41869 · /tle

For live sub-satellite position, see the globe view (requires WebGL).

§ Visibility from observer

Set your observer location to see the next 7 days of passes ≥ 10°. The values pass through the URL so the page stays shareable.

No JS? Fill the form by hand. The geolocation button needs JavaScript.